#timestamp,LO_Frequency,Hit,StdDev 
1457244015.7,286046999.0,N
1457244035.5,286047000.1,N
1457244055.4,286047002.6,N
1457244075.2,286047005.1,N
1457244095.0,286047007.3,N
1457244095.9,286047007.3,N
1457244115.8,286047009.1,N
1457244135.6,286047007.4,N
1457244155.4,286047005.1,N
1457244175.3,286047004.4,N
1457244195.1,286047000.8,N
1457244196.0,286047000.8,N
1457244215.8,286047000.3,N
1457244235.7,286046998.3,N
1457244255.5,286047001.0,N
1457244275.3,286046999.4,N
1457244295.1,286046995.5,N
1457244315.9,286046994.2,N
1457244335.7,286046992.3,N
1457244355.5,286046988.3,N
1457244375.4,286046983.7,Y
1457244395.2,286046985.1,P
1457244415.0,286046984.8,N
1457244415.9,286046984.8,N
1457244435.8,286046981.0,N
1457244455.6,286046977.3,Y
1457244475.4,286046990.6,P
1457244495.3,286046991.1,P
1457244515.1,286046986.9,P
1457244535.8,286046991.0,Y
1457244555.7,286047000.5,P
1457244575.5,286046998.6,N
1457244595.3,286047001.6,N
1457244615.2,286047003.0,N
1457244635.0,286047007.6,N
1457244635.9,286047007.6,N
1457244655.7,286047005.9,N
1457244675.6,286047003.9,N
1457244695.4,286047003.1,N
1457244715.2,286047006.7,N
1457244735.1,286047008.3,N
1457244736.0,286047008.3,N
1457244755.8,286047010.4,N
1457244775.6,286047010.0,N
1457244795.5,286047013.2,N
1457244815.3,286047016.6,N
1457244835.1,286047018.1,N
1457244855.9,286047015.9,N
1457244875.7,286047017.9,N
1457244895.5,286047016.5,N
1457244915.3,286047015.5,N
1457244935.2,286047015.0,N
1457244955.0,286047016.5,N
1457244955.9,286047016.5,N
1457244975.7,286047018.1,N
1457244995.6,286047017.0,N
1457245015.4,286047014.2,N
1457245035.2,286047018.6,N
1457245055.1,286047019.5,N
1457245056.0,286047019.5,N
1457245075.8,286047014.1,N
1457245095.6,286047013.5,N
1457245115.5,286047011.8,N
1457245135.3,286047013.8,N
1457245155.1,286047011.0,N
1457245175.9,286047015.5,Y
1457245195.7,286047000.9,P
1457245215.5,286047002.2,N
1457245235.4,286047001.3,N
1457245255.2,286047002.2,N
1457245275.0,286047001.4,N
1457245275.9,286047001.4,N
1457245295.8,286046998.5,N
1457245315.6,286046997.0,N
1457245335.4,286046996.7,N
1457245355.2,286046995.2,N
1457245375.1,286046993.7,N
1457245376.0,286046993.7,N
1457245395.8,286046993.4,N
1457245415.6,286046995.7,N
1457245435.5,286046992.8,N
1457245455.3,286046989.7,N
1457245475.1,286046986.2,N
1457245495.9,286046984.5,N
1457245515.7,286046984.5,N
1457245535.5,286046986.7,N
1457245555.4,286046984.0,N
1457245575.2,286046985.5,N
1457245595.0,286046989.9,N
1457245595.9,286046989.9,N
1457245615.7,286046986.9,N
1457245635.6,286046989.7,N
1457245655.4,286046991.1,N
1457245675.2,286046993.1,N
1457245695.1,286046991.7,N
1457245696.0,286046991.7,N
1457245715.8,286046992.2,N
1457245735.6,286046993.9,N
1457245755.5,286046997.1,N
1457245775.3,286047004.4,N
1457245795.1,286047005.8,N
1457245815.9,286047006.2,N
1457245835.7,286047013.4,N
1457245855.5,286047017.5,N
1457245875.4,286047021.3,N
1457245895.2,286047020.7,N
1457245915.0,286047026.1,N
1457245915.9,286047026.1,N
1457245935.8,286047028.9,N
1457245955.6,286047026.2,N
1457245975.4,286047025.3,N
1457245995.2,286047025.4,N
1457246015.1,286047028.1,N
1457246016.0,286047028.1,N
1457246035.8,286047023.7,N
1457246055.6,286047024.0,N
1457246075.5,286047026.7,N
1457246095.3,286047026.5,N
1457246115.1,286047027.4,N
1457246135.9,286047031.2,N
1457246155.7,286047031.3,N
1457246175.5,286047031.4,N
1457246195.4,286047032.8,N
1457246215.2,286047029.9,N
1457246235.0,286047029.5,N
1457246235.9,286047029.5,N
1457246255.8,286047028.3,N
1457246275.6,286047027.0,N
1457246295.4,286047030.6,Y
1457246315.3,286047008.8,P
1457246335.1,286047008.6,N
1457246336.0,286047008.6,N
1457246355.8,286047008.2,N
1457246375.7,286047009.7,N
1457246395.5,286047009.7,N
1457246415.3,286047011.8,N
1457246435.2,286047010.9,N
1457246455.9,286047011.5,N
1457246475.7,286047011.1,N
1457246495.6,286047012.2,Y
1457246515.4,286046998.3,P
1457246535.2,286046997.3,N
1457246555.0,286046995.7,N
1457246555.9,286046995.7,N
1457246575.8,286046996.3,N
1457246595.6,286046992.9,N
1457246615.4,286046990.5,N
1457246635.3,286046990.4,N
1457246655.1,286046989.1,N
1457246675.8,286046989.2,N
1457246695.7,286046989.2,N
1457246715.5,286046987.4,N
1457246735.3,286046987.7,N
1457246755.2,286046987.7,N
1457246775.9,286046987.8,N
1457246795.7,286046986.3,N
1457246815.5,286046986.2,N
1457246835.4,286046982.6,N
1457246855.2,286046982.4,N
1457246875.0,286046986.7,N
1457246875.9,286046986.7,N
1457246895.8,286046988.2,N
1457246915.6,286046987.9,N
1457246935.4,286046982.5,N
1457246955.3,286046982.9,N
1457246975.1,286046982.8,N
1457246976.0,286046982.8,N
1457246995.8,286046981.3,Y
1457247015.7,286046991.5,P
1457247035.5,286046987.5,P
1457247055.3,286046985.4,P
1457247075.2,286046985.8,Y
1457247095.0,286046997.0,P
1457247095.9,286046997.0,N
1457247115.7,286046997.6,N
1457247135.6,286046997.7,N
1457247155.4,286046994.3,N
1457247175.2,286046993.4,N
1457247195.1,286046994.9,N
1457247196.0,286046994.9,N
1457247215.8,286046997.9,N
1457247235.6,286046996.5,N
1457247255.5,286046996.1,N
1457247275.3,286046995.3,N
1457247295.1,286046995.6,N
1457247315.9,286046996.5,N
1457247335.7,286046997.7,N
1457247355.5,286046997.7,N
1457247375.3,286046994.9,N
1457247395.2,286046995.5,N
1457247415.0,286046997.3,N
1457247415.9,286046997.3,N
1457247435.7,286046999.4,N
1457247455.6,286046998.2,N
1457247475.4,286046999.6,N
1457247495.2,286046997.7,N
1457247515.1,286046994.4,N
1457247516.0,286046994.4,N
1457247535.8,286046992.6,Y
1457247555.6,286046996.6,P
1457247575.5,286046999.0,P
1457247595.3,286046996.6,N
